Location: Kelshall
(52.0000°N, 0.0500°W)
Time: 23:22:43
(UTC+00:00)

Meteor 1-15 Rocket - Pass Details

Date: 26 January 2021
Orbit: 840 x 907 km, 81.2° (Epoch: 03 March)

Event Time Altitude Azimuth Distance (km) Brightness Sun altitude
Exits shadow 05:23:19 15° 338° (NNW) 2,213 6.1 -22.1°
Drops below altitude 10° 05:24:43 10° 350° (N) 2,538 6.6 -21.9°
Sets 05:27:55 0° 7° (N) 3,494 7.5 -21.4°
